Weather reports worldwide

Advertisment
Threave, United Kingdom (99090): temperature & dewpoint: 02.08.2020 03:00:00 - 08.08.2020 03:00:00 (BST)Threave, United Kingdom (99090): temperature -20cm & temperature -100cm: 02.08.2020 03:00:00 - 08.08.2020 03:00:00 (BST)Threave, United Kingdom (99090): precipitation: 02.08.2020 03:00:00 - 08.08.2020 03:00:00 (BST)
Date & Time tt [°C] td [°C] tt -20cm [°C] tt -100cm [°C] rr [mm]
08.08.2020 03:00:00 - - - - 0,0
08.08.2020 02:00:00 10,7 10,2 - - 0,0
08.08.2020 01:00:00 11,6 10,6 - - 0,0
08.08.2020 00:00:00 13,5 12,2 - - 0,0
07.08.2020 23:00:00 15,0 14,4 - - 0,0
07.08.2020 22:00:00 15,5 14,5 - - 0,0
07.08.2020 21:00:00 16,3 15,2 - - 0,0
07.08.2020 20:00:00 16,6 15,4 - - 0,0
07.08.2020 19:00:00 17,1 15,6 - - 0,0
07.08.2020 18:00:00 17,6 16,4 - - 0,0
07.08.2020 17:00:00 17,0 15,8 - - 0,2
07.08.2020 16:00:00 18,7 16,1 - - 0,0
07.08.2020 15:00:00 19,4 16,2 - - 0,0
07.08.2020 14:00:00 18,0 15,7 - - 0,0
07.08.2020 13:00:00 18,7 16,3 - - 0,0
07.08.2020 12:00:00 18,1 16,6 - - 0,0
07.08.2020 11:00:00 18,7 16,4 - - 0,0
07.08.2020 10:00:00 18,1 16,3 17,0 14,2 0,0
07.08.2020 09:00:00 16,9 15,5 - - 0,0
07.08.2020 08:00:00 16,2 15,2 - - 0,0
07.08.2020 07:00:00 15,3 14,7 - - 0,0
07.08.2020 06:00:00 14,9 13,9 - - 0,0
07.08.2020 05:00:00 15,3 14,0 - - 0,0
07.08.2020 04:00:00 15,4 14,0 - - 0,0
07.08.2020 03:00:00 15,6 14,1 - - 0,0
07.08.2020 02:00:00 15,7 14,1 - - 0,0
07.08.2020 01:00:00 15,7 14,2 - - 0,0
07.08.2020 00:00:00 15,6 14,2 - - 0,0
06.08.2020 23:00:00 15,2 13,7 - - 0,0
06.08.2020 22:00:00 15,2 13,9 - - 0,0
06.08.2020 21:00:00 15,3 13,4 - - 0,0
06.08.2020 20:00:00 16,2 13,8 - - 0,0
06.08.2020 19:00:00 16,7 14,2 - - 0,0
06.08.2020 18:00:00 17,3 15,1 - - 0,0
06.08.2020 17:00:00 18,2 14,9 - - 0,0
06.08.2020 16:00:00 18,7 13,8 - - 0,0
06.08.2020 15:00:00 19,1 15,0 - - 0,0
06.08.2020 14:00:00 20,2 15,0 - - 0,0
06.08.2020 13:00:00 19,2 14,8 - - 0,0
06.08.2020 12:00:00 18,3 15,5 - - 0,0
06.08.2020 11:00:00 18,2 15,4 - - 0,0
06.08.2020 10:00:00 16,9 16,5 16,5 14,4 0,0
06.08.2020 09:00:00 15,6 15,6 - - 0,0
06.08.2020 08:00:00 14,2 14,1 - - 0,0
06.08.2020 07:00:00 13,4 13,3 - - 0,0
06.08.2020 06:00:00 13,1 13,1 - - 0,0
06.08.2020 05:00:00 12,9 12,9 - - 0,0
06.08.2020 04:00:00 12,5 12,4 - - 0,0
06.08.2020 03:00:00 12,6 12,5 - - 0,0
06.08.2020 02:00:00 13,1 13,0 - - 0,0
06.08.2020 01:00:00 13,1 12,9 - - 0,0
06.08.2020 00:00:00 14,8 14,6 - - 0,0
05.08.2020 23:00:00 15,1 15,0 - - 0,0
05.08.2020 22:00:00 15,0 14,8 - - 0,0
05.08.2020 21:00:00 15,3 15,1 - - 0,4
05.08.2020 20:00:00 15,5 15,3 - - 0,0
05.08.2020 19:00:00 16,0 15,6 - - 0,2
05.08.2020 18:00:00 16,4 16,0 - - 1,2
05.08.2020 17:00:00 16,0 15,7 - - 2,6
05.08.2020 16:00:00 16,0 15,4 - - 1,6
05.08.2020 15:00:00 15,9 15,5 - - 0,0
05.08.2020 14:00:00 16,2 15,8 - - 2,0
05.08.2020 13:00:00 16,1 15,8 - - 4,0
05.08.2020 12:00:00 16,3 15,9 - - 2,0
05.08.2020 11:00:00 16,0 15,8 - - 0,6
05.08.2020 10:00:00 15,5 15,4 16,5 14,4 0,4
05.08.2020 09:00:00 15,6 15,5 - - 0,2
05.08.2020 08:00:00 15,4 15,2 - - 0,2
05.08.2020 07:00:00 15,3 15,1 - - 0,0
05.08.2020 06:00:00 15,4 15,2 - - 0,4
05.08.2020 05:00:00 15,4 15,1 - - 1,0
05.08.2020 04:00:00 15,3 15,0 - - 0,8
05.08.2020 03:00:00 15,4 15,0 - - 0,6
05.08.2020 02:00:00 15,8 14,9 - - 0,0
05.08.2020 01:00:00 16,2 14,7 - - 0,0
05.08.2020 00:00:00 16,3 14,6 - - 0,0
04.08.2020 23:00:00 16,2 14,7 - - 0,0
04.08.2020 22:00:00 16,0 14,9 - - 0,0
04.08.2020 21:00:00 15,7 14,8 - - 0,8
04.08.2020 20:00:00 15,6 14,9 - - 0,2
04.08.2020 19:00:00 15,6 15,0 - - 2,6
04.08.2020 18:00:00 15,5 14,9 - - 0,6
04.08.2020 17:00:00 15,7 15,0 - - 0,0
04.08.2020 16:00:00 15,9 14,9 - - 0,0
04.08.2020 15:00:00 15,5 14,7 - - 0,0
04.08.2020 14:00:00 15,1 14,3 - - 0,0
04.08.2020 13:00:00 14,6 14,1 - - 0,0
04.08.2020 12:00:00 13,9 13,5 - - 0,8
04.08.2020 11:00:00 12,9 12,4 - - 2,4
04.08.2020 10:00:00 12,6 12,1 16,9 14,4 2,4
04.08.2020 09:00:00 12,3 11,1 - - 2,2
04.08.2020 08:00:00 13,0 12,2 - - 1,4
04.08.2020 07:00:00 12,6 11,5 - - 0,8
04.08.2020 06:00:00 13,3 12,3 - - 0,4
04.08.2020 05:00:00 12,9 11,2 - - 0,0
04.08.2020 04:00:00 12,0 10,0 - - 0,0
04.08.2020 03:00:00 11,5 9,8 - - 0,0
04.08.2020 02:00:00 12,4 11,3 - - 0,0
04.08.2020 01:00:00 12,3 11,6 - - 0,0
04.08.2020 00:00:00 11,1 9,6 - - 0,0
03.08.2020 23:00:00 11,9 10,0 - - 0,0
03.08.2020 22:00:00 12,4 9,7 - - 0,0
03.08.2020 21:00:00 12,9 9,9 - - 0,0
03.08.2020 20:00:00 15,2 8,4 - - 0,0
03.08.2020 19:00:00 15,4 9,0 - - 0,0
03.08.2020 18:00:00 15,3 7,6 - - 0,0
03.08.2020 17:00:00 17,2 7,0 - - 0,0
03.08.2020 16:00:00 17,5 8,7 - - 0,0
03.08.2020 15:00:00 16,4 8,5 - - 0,0
03.08.2020 14:00:00 15,5 10,1 - - 0,0
03.08.2020 13:00:00 13,8 11,3 - - 0,0
03.08.2020 12:00:00 13,3 11,1 - - 1,0
03.08.2020 11:00:00 14,8 10,1 - - 0,0
03.08.2020 10:00:00 13,7 10,3 17,0 14,4 0,0
03.08.2020 09:00:00 11,7 10,9 - - 0,0
03.08.2020 08:00:00 10,0 9,8 - - 0,0
03.08.2020 07:00:00 9,5 9,3 - - 0,0
03.08.2020 06:00:00 9,6 9,5 - - 0,0
03.08.2020 05:00:00 9,3 9,2 - - 0,0
03.08.2020 04:00:00 9,1 9,0 - - 0,0
03.08.2020 03:00:00 8,7 8,6 - - 0,0
03.08.2020 02:00:00 8,3 7,9 - - 0,0
03.08.2020 01:00:00 9,5 9,0 - - 0,0
03.08.2020 00:00:00 10,7 10,1 - - 0,0
02.08.2020 23:00:00 11,1 10,3 - - 0,0
02.08.2020 22:00:00 11,9 10,8 - - 0,2
02.08.2020 21:00:00 12,0 11,0 - - 0,0
02.08.2020 20:00:00 13,5 11,2 - - 0,0
02.08.2020 19:00:00 13,6 11,4 - - 2,0
02.08.2020 18:00:00 13,6 10,9 - - 0,8
02.08.2020 17:00:00 15,8 11,5 - - 0,0
02.08.2020 16:00:00 14,7 12,2 - - 1,8
02.08.2020 15:00:00 16,8 11,2 - - 0,0
02.08.2020 14:00:00 17,2 12,0 - - 0,0
02.08.2020 13:00:00 17,1 10,4 - - 0,0
02.08.2020 12:00:00 16,5 11,6 - - 0,0
02.08.2020 11:00:00 15,6 10,7 - - 0,0
02.08.2020 10:00:00 13,9 11,6 17,0 14,2 0,0
02.08.2020 09:00:00 13,7 12,7 - - 0,0
02.08.2020 08:00:00 12,5 12,1 - - 0,0
02.08.2020 07:00:00 11,8 11,6 - - 0,0
02.08.2020 06:00:00 11,3 11,1 - - 0,4
02.08.2020 05:00:00 11,4 11,2 - - 0,2
02.08.2020 04:00:00 11,4 11,1 - - 0,2
02.08.2020 03:00:00 11,6 11,2 - - 0,0

tt = temperature
td = dewpoint
tt -20cm = temperature -20cm
tt -100cm = temperature -100cm
rr = precipitation

Next stations